ION SCV-003 (48912 NORAD) Tracking and Keplerian Element Data

This shows tracking and keplerian element data for the satellite.

Feedback or suggestion? Click here.




ElementValue
Catalog48912
NameION SCV-003
Epoch Orbit1290
Epoch Day262.18642454
Epoch Year2021
RAAN29.7388
Inclination97.5196
Eccentricity0.000958
Argument of Perigee313.3095
Mean Anonmoly166.304
Mean Motion15.12613179
Decay Rate-0.00020105
L11 48912U 21059AK 21262.18642454 -.00020105 00000-0 -11503-2 0 9990
L22 48912 97.5196 29.7388 0009580 313.3095 166.3040 15.12613179 12904

Live tracking and technical data element details for ION SCV-003 (NORAD 48912). ION SCV-003 can be tracked NOW for your location showing map with azimuth and elevation plus other details from your city location.

Track the satellite on the map from your city or location and see movement details for azimuth, elevation, latitude, longitude, range, height, and movement on the map or in text.







IsCatalogInMostPopularTable: catalog: 48912, numindb: 13
Update: records affected: 1



GetName: 48912 ION SCV-003

Hit Count: updated at: Fri, 24 Sep 2021 19:07:01 GMT